Weather in Podyvotye

Russia / Bryansk Oblast     52°03′28″N   34°08′43″E
temp.,
°C
wind,
m/s
gust,
m/s
humid.,
%
clouds,
%
prec.,
mm/h
press.,
hPa
HPBL,
m
16 may, sun
sun1600:00+12ssw33915 0.0 101238
03:00+12s349230 0.2 101284
06:00+11ssw35945 0.1 1013109
09:00+16sw35750 0.1 1013470
12:00+20ssw34601 0.0 10131097
15:00+21s3456100 0.0 10131525
18:00+21s2367100 0.0 10121259
21:00+16ne227667 0.0 101211
17 may, mon
mon1700:00+14ne4587100 0.0 101275
03:00+13ene41188100 0.1 1010216
06:00+14ene5119376 2.2 1009265
09:00+18e61079100 2.2 1007459
12:00+22e6126598 0.0 1006738
15:00+24ese7126369 0.0 10041578
18:00+22se61173100 0.0 1004868
21:00+19se716802 0.0 1004491
18 may, tue
tue1800:00+16ese4994100 0.0 1004179
03:00+16se51296100 0.0 1004512
06:00+14se61390100 0.0 1004539
09:00+16sse81385100 0.0 1004774
12:00+17sse7108397 0.3 1005926
15:00+19sse6873100 1.4 10041097
18:00+17s61184100 2.5 1004619
21:00+14se5128962 3.7 1004376
19 may, wed
wed1900:00+13se5119598 0.0 1003312
03:00+13se499890 0.0 1003268
06:00+13s4798100 0.3 1003455
09:00+12ssw3696100 1.4 1004377
12:00+16ssw5576100 0.6 1004998
15:00+15s6772100 0.8 10041143
18:00+14s578167 0.3 1004801
21:00+12s4790100 0.5 1004305
20 may, thu
thu2000:00+11sw4898100 0.6 1004457
03:00+9wsw61197100 3.3 1005723
06:00+9wsw71394100 0.1 1007910
09:00+10sw71293100 0.2 1009777
12:00+16wsw8116923 0.2 10101447
15:00+15wsw5872100 0.4 1012962
18:00+16wsw3473100 0.1 1013884
21:00+12nne1282100 0.2 101411